Location: Indian Hills
(32.9760°N, 85.9450°W)
Time: 07:56:29
(UTC+00:00)

Meteor 1-27 Rocket - Pass Details

Date: 09 December 2019
Orbit: 831 x 909 km, 81.3° (Epoch: 21 January)

Event Time Altitude Azimuth Distance (km) Brightness Sun altitude
Exits shadow 10:01:35 31° 19° (NNE) 1,539 5.0 -31.4°
Maximum altitude 10:04:12 53° 79° (E) 1,106 4.5 -30.8°
Drops below altitude 10° 10:09:54 10° 156° (SSE) 2,560 6.6 -29.6°
Sets 10:12:23 0° 161° (SSE) 3,487 7.3 -29.1°
